Weather Service Report


519 
ASUS45 KPSR 181810
RWRAZ 

ARIZONA REGIONAL HOURLY WEATHER ROUNDUP
NATIONAL WEATHER SERVICE PHOENIX AZ
1100 AM MST THU SEP 18 2014

NOTE: FAIR INDICATES FEW OR NO CLOUDS BELOW 12,000 FEET WITH NO
SIGNIFICANT WEATHER AND/OR OBSTRUCTIONS TO VISIBILITY.

AZZ001>003-036-181900-
NORTHWEST ARIZONA

CITY           SKY/WX    TMP DP  RH WIND       PRES   REMARKS
BULLHEAD CITY  SUNNY     93  64  38 SW7       29.75F
KINGMAN        PTSUNNY   83  59  44 SW10      29.93S
6HR MIN TEMP:  65; 6HR MAX TEMP:  84;

$$

AZZ004>008-015-016-018-181900-
NORTH CENTRAL ARIZONA

CITY           SKY/WX    TMP DP  RH WIND       PRES   REMARKS
GRAND CANYON   PTSUNNY   71  50  47 SE10      30.13F
6HR MIN TEMP:  42; 6HR MAX TEMP:  72;

PRESCOTT       MOSUNNY   76  54  46 SW3       30.04F
6HR MIN TEMP:  56; 6HR MAX TEMP:  77;

FLAGSTAFF      MOSUNNY   69  50  50 NE7       30.16F
6HR MIN TEMP:  46; 6HR MAX TEMP:  70;

PAYSON         PTSUNNY   75  55  50 NW5       30.05F
PAGE           SUNNY     84  53  34 E5        29.98F
6HR MIN TEMP:  66; 6HR MAX TEMP:  84;

$$

AZZ009>014-017-181900-
NORTHEAST ARIZONA

CITY           SKY/WX    TMP DP  RH WIND       PRES   REMARKS
WINSLOW        SUNNY     74  57  55 VRB5      30.04F
6HR MIN TEMP:  54; 6HR MAX TEMP:  75;

SAINT JOHNS    PTSUNNY   73  54  51 E6        30.05F
6HR MIN TEMP:  53; 6HR MAX TEMP:  73;

WINDOW ROCK    SUNNY     75  49  39 VRB6      30.14F
6HR MIN TEMP:  43; 6HR MAX TEMP:  75;

SHOW LOW       MOSUNNY   61  55  82 N3        30.14S
$$

AZZ023-181900-
GREATER PHOENIX AREA

CITY           SKY/WX    TMP DP  RH WIND       PRES   REMARKS
PHOENIX        MOSUNNY   90  64  42 SE6       29.78F
6HR MIN TEMP:  76; 6HR MAX TEMP:  90;

BUCKEYE          N/A     86  64  48 SE9       29.79F
GLENDALE       MOSUNNY   88  64  45 SE8       29.81S
DEER VALLEY    SUNNY     86  61  42 VRB3      29.80F
6HR MIN TEMP:  75; 6HR MAX TEMP:  86;

SCOTTSDALE     SUNNY     87  62  43 S5        29.82F
6HR MIN TEMP:  75; 6HR MAX TEMP:  87;

MESA-GATEWAY   PTSUNNY   88  63  42 N6        29.82F
CHANDLER       MOSUNNY   88  64  45 E5        29.80F
$$

AZZ027-028-181900-
SOUTHWEST MARICOPA COUNTY AND PINAL COUNTY

CITY           SKY/WX    TMP DP  RH WIND       PRES   REMARKS
CASA GRANDE    SUNNY     84  63  48 E3        29.82F
6HR MIN TEMP:  73; 6HR MAX TEMP:  84;

$$

AZZ503-504-507>509-181900-
SOUTHEAST ARIZONA

CITY           SKY/WX    TMP DP  RH WIND       PRES   REMARKS
TUCSON         CLOUDY    76  66  71 SE7       29.91S
6HR MIN TEMP:  70; 6HR MAX TEMP:  77; 6HR PCP: TRACE;

RYAN FIELD       N/A     79  66  65 E6        29.89F
NOGALES        PTSUNNY   73  65  75 W5        29.96S
6HR MIN TEMP:  66; 6HR MAX TEMP:  74; 6HR PCP:  0.02;

DOUGLAS        LGT RAIN  67  65  93 N9        29.97S
6HR MIN TEMP:  65; 6HR MAX TEMP:  68; 6HR PCP:  0.19;

SAFFORD        CLOUDY    71  64  78 SE7       29.93F
6HR MIN TEMP:  66; 6HR MAX TEMP:  72; 6HR PCP: TRACE;

$$

AZZ020-021-025-026-031-181900-
SOUTHWEST ARIZONA

CITY           SKY/WX    TMP DP  RH WIND       PRES   REMARKS
YUMA           MOSUNNY   97  66  36 S9        29.73F HX 100
6HR MIN TEMP:  84; 6HR MAX TEMP:  97;

$$

CAZ031-033-041-043-047-048-061-181900-
SOUTHERN CALIFORNIA

CITY           SKY/WX    TMP DP  RH WIND       PRES   REMARKS
DOWNTOWN L.A.  SUNNY     78  60  53 VRB3      29.88R
6HR MIN TEMP:  67; 6HR MAX TEMP:  78;

L.A. AIRPORT   MOSUNNY   75  60  59 W17       29.89S
6HR MIN TEMP:  67; 6HR MAX TEMP:  75;

SAN DIEGO      PTSUNNY   77  65  66 W9        29.90S
6HR MIN TEMP:  73; 6HR MAX TEMP:  77;

BURBANK        SUNNY     77  58  51 SE13      29.88S
6HR MIN TEMP:  68; 6HR MAX TEMP:  78;

ONTARIO        MOSUNNY   77  56  48 SW10G16   29.90S
6HR MIN TEMP:  66; 6HR MAX TEMP:  78;

RIVERSIDE      SUNNY     77  60  55 W7        29.89F
6HR MIN TEMP:  68; 6HR MAX TEMP:  77;

PALM SPRINGS   MOSUNNY   97  56  25 CALM      29.75F
6HR MIN TEMP:  82; 6HR MAX TEMP:  97;

EL CENTRO NAS  MOSUNNY  100  50  18 NW7       29.70F
6HR MIN TEMP:  82; 6HR MAX TEMP: 100;

IMPERIAL       SUNNY     97  57  26 CALM      29.70F
6HR MIN TEMP:  82; 6HR MAX TEMP:  97;

BLYTHE         SUNNY     94  69  44 SE10      29.73F
6HR MIN TEMP:  80; 6HR MAX TEMP:  94;

NEEDLES        SUNNY     95  64  35 SE7       29.75F
6HR MIN TEMP:  83; 6HR MAX TEMP:  96;

$$

NVZ020-UTZ003-181900-
SOUTHERN NEVADA-UTAH

CITY           SKY/WX    TMP DP  RH WIND       PRES   REMARKS
LAS VEGAS      MOSUNNY   92  46  20 S12       29.77F
6HR MIN TEMP:  80; 6HR MAX TEMP:  92;

SALT LAKE CITY MOSUNNY   86  46  24 S17G25    29.90F
6HR MIN TEMP:  68; 6HR MAX TEMP:  87;

$$

NMZ009-TXZ055-181900-
NEW MEXICO-WEST TEXAS

CITY           SKY/WX    TMP DP  RH WIND       PRES   REMARKS
ALBUQUERQUE    MOSUNNY   74  52  46 N7        30.07F
6HR MIN TEMP:  58; 6HR MAX TEMP:  74;

EL PASO        LGT RAIN  67  65  93 N10       30.00F FOG
6HR MIN TEMP:  65; 6HR MAX TEMP:  68; 6HR PCP:  0.05;

$$


........................KEY........................
SKY/WX - SKY CONDITION/WEATHER
TMP    - TEMPERATURE IN FAHRENHEIT
DP     - DEW POINT IN FAHRENHEIT
RH     - RELATIVE HUMIDITY IN PERCENT
WIND   - DIRECTION AND SPEED IN MILES PER HOUR (MPH)
VRB    - VARIABLE WIND DIRECTION
PRES   - MEAN SEA LEVEL PRESSURE IN INCHES OF MERCURY
         F - FALLING PRESSURE   R - RISING PRESSURE
         S - STEADY PRESSURE
VSB    - VISIBILITY IN MILES
HX     - HEAT INDEX IN FAHRENHEIT
WCI    - WIND CHILL INDEX IN FAHRENHEIT
TC     - TEMPERATURE IN CELSIUS WHICH IS ALSO KNOWN AS
         TEMPERATURE IN CENTIGRADE
AFB    - AIR FORCE BASE
         LUKE AFB IS LUKE AIR FORCE BASE
         DAVIS-MONTHAN IS DAVIS-MONTHAN AIR FORCE BASE
NAS    - NAVAL AIR STATION
         EL CENTRO NAS IS EL CENTRO NAVAL AIR STATION
N/A    - NOT AVAILABLE

Return to Home page


Western Regional Climate Center, wrcc@dri.edu